Location: Krakow
(50.0830°N, 19.9170°E)
Time: 11:07:34
(UTC+01:00)

deb Explorer IX - All Passes

Search period start: 11 December 2023 00:00
Search period end: 21 December 2023 00:00
Orbit: 524 x 933 km, 38.7° (Epoch: 10 December)

Date Brightness Start Highest point End Pass type
(mag) Time Alt. Az. Time Alt. Az. Time Alt. Az.
11 Dec - 19:54:36 10° SW 19:57:10 16° S 19:59:46 10° SE visible
11 Dec - 21:38:46 10° SW 21:40:55 14° SSW 21:43:08 10° SSE night (unlit)
12 Dec - 19:03:02 10° SSW 19:05:25 15° S 19:07:49 10° SE visible
12 Dec - 20:46:48 10° SW 20:49:10 15° S 20:51:35 10° SSE night (unlit)
13 Dec - 18:11:33 10° SSW 18:13:40 14° SSE 18:15:45 10° SE visible
13 Dec - 19:54:54 10° SW 19:57:24 16° S 19:59:54 10° SE visible
14 Dec - 17:20:15 10° S 17:21:53 12° SSE 17:23:30 10° SE visible
14 Dec - 19:03:02 10° SW 19:05:36 16° S 19:08:09 10° SE visible
14 Dec - 20:47:58 10° SW 20:49:18 11° SSW 20:50:38 10° S night (unlit)
15 Dec - 16:29:32 10° SSE 16:30:05 10° SSE 16:30:38 10° SSE visible
15 Dec - 18:11:11 10° SW 18:13:47 16° S 18:16:19 10° SE visible
15 Dec - 19:55:32 10° SW 19:57:30 13° SSW 19:59:28 10° SSE visible
16 Dec - 17:19:22 10° SSW 17:21:56 16° S 17:24:24 10° SE visible
16 Dec - 19:03:19 10° SW 19:05:41 15° S 19:08:00 10° SSE visible
17 Dec - 16:27:37 10° SSW 16:30:03 15° S 16:32:24 10° SE visible
17 Dec - 18:11:10 10° SW 18:13:48 16° S 18:16:23 10° SE visible
18 Dec - 15:35:58 10° SSW 15:38:09 13° SSE 15:40:14 10° SE daylight
18 Dec - 17:19:04 10° SW 17:21:55 17° S 17:24:39 10° SE visible
18 Dec - 19:04:05 10° SW 19:05:35 12° SSW 19:07:04 10° S visible
19 Dec - 14:44:34 10° S 14:46:13 12° SSE 14:47:48 10° SE daylight
19 Dec - 16:26:58 10° SW 16:29:58 18° S 16:32:49 10° SE visible
19 Dec - 18:11:26 10° SW 18:13:42 14° SSW 18:15:54 10° SSE visible
20 Dec - 15:34:54 10° SW 15:37:59 18° S 15:40:53 10° SE daylight
20 Dec - 17:19:01 10° SW 17:21:46 17° S 17:24:25 10° SSE visible
